Location: Avenches
(46.8809°N, 7.0410°E)
Time: 13:52:28
(UTC+00:00)

MetOp-B - Pass Details

Date: 30 March 2020
Orbit: 818 x 822 km, 98.7° (Epoch: 25 May)

Event Time Altitude Azimuth Distance (km) Brightness Sun altitude
Exits shadow 20:40:19 52° 200° (SSW) 1,018 4.4 -25.9°
Maximum altitude 20:41:29 67° 257° (WSW) 890 4.3 -26.1°
Drops below altitude 10° 20:46:51 10° 341° (NNW) 2,431 7.3 -26.8°
Sets 20:49:14 0° 344° (NNW) 3,368 8.2 -27.1°
